Surface/Precipitation History
10/20/2014 12:21  to  10/21/2014 12:21
Change End Date:
Date/Time
(MDT)
Sf
Temp Chem Water Layer Surface Precipitation
Sf Sub Frz Factor Pct Depth IcePct Cond Salin Type Intens Accum Rate
10/21/2014 12:19 Wet 47.7F 55F 32F 10 0% 0.00 in 0% 0 mhos 3 Yes - - -
10/21/2014 12:09 Wet 47.8F 55F 32F 20 0% 0.10 in 0% 0 mhos 3 Yes - - -
10/21/2014 12:01 Wet 48.0F 55F 32F 15 0% 0.10 in 0% 0 mhos 3 Yes - - -
10/21/2014 11:58 Wet 48.0F 55F 32F 5 0% 0.00 in 0% 0 mhos 3 Yes - - -
10/21/2014 11:50 Wet 48.2F 55F 32F 20 0% 0.00 in 0% 0 mhos 6 Yes - - -
10/21/2014 11:48 Wet 48.2F 55F 32F 20 0% 0.00 in 0% 0 mhos 6 Yes - - -
10/21/2014 11:38 Wet 48.6F 55F 32F 10 0% 0.10 in 0% 0 mhos 2 Yes - - -
10/21/2014 11:30 Wet 48.7F 55F 32F 5 0% 0.00 in 0% 0 mhos 2 Yes - - -
10/21/2014 11:25 Wet 48.7F 55F 32F 15 0% 0.10 in 0% 0 mhos 3 Yes - - -
10/21/2014 11:15 Wet 48.9F 55F 32F 5 0% 0.00 in 0% 0 mhos 6 Yes - - -
10/21/2014 11:05 Wet 49.3F 55F 32F 5 0% 0.00 in 0% 0 mhos 9 Yes - - -
10/21/2014 11:01 Wet 49.5F 55F 32F 5 0% 0.00 in 0% 0 mhos 7 Yes - - -
10/21/2014 10:55 Wet 49.3F 55F 32F 5 0% 0.00 in 0% 0 mhos 4 Yes - - -
10/21/2014 10:50 Wet 49.3F 55F 32F 5 0% 0.00 in 0% 0 mhos 5 Yes - - -
10/21/2014 10:44 Wet 50.0F 55F 32F 5 0% 0.00 in 0% 0 mhos 10 Yes - - -
Date/Time
(MDT)
Sf
Temp Chem Water Layer Surface Precipitation
Sf Sub Frz Factor Pct Depth IcePct Cond Salin Type Intens Accum Rate
10/21/2014 10:34 Wet 49.5F 55F 32F 5 0% 0.00 in 0% 0 mhos 5 Yes - - -
10/21/2014 10:34 Wet 49.5F 55F 32F 5 0% 0.00 in 0% 0 mhos 5 Yes - - -
10/21/2014 10:24 Wet 49.1F 55F 32F 5 0% 0.00 in 0% 0 mhos 6 Yes - - -
10/21/2014 10:20 Wet 49.1F 55F 32F 5 0% 0.00 in 0% 0 mhos 6 Yes - - -
10/21/2014 10:14 Wet 48.9F 55F 32F 5 0% 0.10 in 0% 0 mhos 1 Yes - - -
10/21/2014 10:04 Wet 48.9F 55F 32F 20 0% 0.00 in 0% 0 mhos 5 Yes - - -
10/21/2014 10:01 Wet 48.9F 55F 32F 5 0% 0.00 in 0% 0 mhos 6 Yes - - -
10/21/2014 09:54 Wet 48.7F 55F 32F 20 0% 0.10 in 0% 0 mhos 2 Yes - - -
10/21/2014 09:51 Wet 48.6F 55F 32F 5 0% 0.00 in 0% 0 mhos 2 Yes - - -
10/21/2014 09:44 Wet 48.2F 55F 32F 10 0% 0.10 in 0% 0 mhos 1 Yes - - -
10/21/2014 09:34 Wet 48.2F 55F 32F 15 0% 0.10 in 0% 0 mhos 2 Yes - - -
10/21/2014 09:24 Wet 48.2F 55F 32F 20 0% 0.10 in 0% 0 mhos 3 Yes - - -
10/21/2014 09:21 Wet 48.4F 55F 32F 10 0% 0.00 in 0% 0 mhos 3 Yes - - -
10/21/2014 09:14 Wet 48.4F 55F 32F 25 0% 0.10 in 0% 0 mhos 3 Yes - - -
10/21/2014 09:04 Wet 48.0F 55F 32F 5 0% 0.00 in 0% 0 mhos 9 Yes - - -
Date/Time
(MDT)
Sf
Temp Chem Water Layer Surface Precipitation
Sf Sub Frz Factor Pct Depth IcePct Cond Salin Type Intens Accum Rate
10/21/2014 09:01 Wet 47.8F 55F 32F 5 0% 0.00 in 0% 0 mhos 16 Yes - - -
10/21/2014 08:54 Wet 47.8F 55F 32F 5 0% 0.00 in 0% 0 mhos 14 Yes - - -
10/21/2014 08:51 Wet 48.0F 56F 32F 5 0% 0.00 in 0% 0 mhos 12 Yes - - -
10/21/2014 08:44 Wet 48.2F 55F 32F 5 0% 0.00 in 0% 0 mhos 5 Yes - - -
10/21/2014 08:34 Wet 48.2F 56F 32F 5 0% 0.00 in 0% 0 mhos 9 Yes - - -
10/21/2014 08:31 Wet 48.0F 56F 32F 5 0% 0.00 in 0% 0 mhos 5 Yes - - -
10/21/2014 08:24 Wet 48.2F 56F 32F 5 0% 0.00 in 0% 0 mhos 14 Yes - - -
10/21/2014 08:21 Wet 48.0F 56F 32F 5 0% 0.00 in 0% 0 mhos 13 Yes - - -
10/21/2014 08:14 Wet 48.2F 56F 32F 20 0% 0.00 in 0% 0 mhos 13 Yes - - -
10/21/2014 08:04 Wet 48.0F 56F 32F 15 0% 0.00 in 0% 0 mhos 16 Yes - - -
10/21/2014 08:03 Wet 48.0F 56F 32F 15 0% 0.00 in 0% 0 mhos 16 Yes - - -
10/21/2014 07:53 Wet 48.2F 56F 32F 70 0% 0.00 in 0% 0 mhos 13 Yes - - -
10/21/2014 07:50 Wet 48.2F 56F 32F 55 0% 0.00 in 0% 0 mhos 12 Yes - - -
10/21/2014 07:43 Wet 48.2F 56F 32F 80 0% 0.00 in 0% 0 mhos 21 Yes - - -
10/21/2014 07:33 Dry 48.4F 56F - - - - - 0 mhos 1 Yes - - -
Date/Time
(MDT)
Sf
Temp Chem Water Layer Surface Precipitation
Sf Sub Frz Factor Pct Depth IcePct Cond Salin Type Intens Accum Rate
10/21/2014 07:32 Dry 48.6F 56F - - - - - 0 mhos 0 Yes - - -
10/21/2014 07:23 Dry 48.0F 56F - - - - - 0 mhos 0 Yes - - -
10/21/2014 07:21 Dry 47.8F 56F - - - - - 0 mhos 0 Yes - - -
10/21/2014 07:13 Dry 48.7F 56F - - - - - 0 mhos 0 Yes - - -
10/21/2014 07:03 Dry 48.9F 56F - - - - - 0 mhos 0 None None - -
10/21/2014 06:53 Dry 48.9F 56F - - - - - 0 mhos 0 None None - -
10/21/2014 06:51 Dry 48.7F 56F - - - - - 0 mhos 0 None None - -
10/21/2014 06:43 Dry 48.7F 56F - - - - - 0 mhos 0 None None - -
10/21/2014 06:36 Dry 48.6F 56F - - - - - 0 mhos 0 None None - -
10/21/2014 06:33 Dry 48.6F 56F - - - - - 0 mhos 0 None None - -
10/21/2014 06:23 Dry 48.6F 56F - - - - - 0 mhos 0 None None - -
10/21/2014 06:21 Dry 48.6F 56F - - - - - 0 mhos 0 None None - -
10/21/2014 06:13 Dry 48.7F 56F - - - - - 0 mhos 0 None None - -
10/21/2014 06:03 Dry 48.7F 56F - - - - - 0 mhos 0 None None - -
10/21/2014 06:02 Dry 48.7F 56F - - - - - 0 mhos 0 None None - -
Date/Time
(MDT)
Sf
Temp Chem Water Layer Surface Precipitation
Sf Sub Frz Factor Pct Depth IcePct Cond Salin Type Intens Accum Rate
10/21/2014 05:53 Dry 48.6F 56F - - - - - 0 mhos 0 None None - -
10/21/2014 05:51 Dry 48.4F 56F - - - - - 0 mhos 0 None None - -
10/21/2014 05:43 Dry 48.6F 56F - - - - - 0 mhos 0 None None - -
10/21/2014 05:33 Dry 48.2F 56F - - - - - 0 mhos 0 None None - -
10/21/2014 05:23 Dry 48.2F 56F - - - - - 0 mhos 0 None None - -
10/21/2014 05:21 Dry 48.2F 56F - - - - - 0 mhos 0 None None - -
10/21/2014 05:13 Dry 48.0F 56F - - - - - 0 mhos 0 None None - -
10/21/2014 05:03 Dry 48.0F 56F - - - - - 0 mhos 0 None None - -
10/21/2014 04:52 Dry 47.7F 56F - - - - - 0 mhos 0 None None - -
10/21/2014 04:51 Dry 47.7F 56F - - - - - 0 mhos 0 None None - -
10/21/2014 04:42 Dry 47.5F 56F - - - - - 0 mhos 0 None None - -
10/21/2014 04:33 Dry 47.1F 56F - - - - - 0 mhos 0 None None - -
10/21/2014 04:32 Dry 47.1F 56F - - - - - 0 mhos 0 None None - -
10/21/2014 04:22 Dry 46.6F 56F - - - - - 0 mhos 0 None None - -
10/21/2014 04:21 Dry 46.8F 56F - - - - - 0 mhos 0 None None - -
Date/Time
(MDT)
Sf
Temp Chem Water Layer Surface Precipitation
Sf Sub Frz Factor Pct Depth IcePct Cond Salin Type Intens Accum Rate
10/21/2014 04:12 Dry 46.9F 56F - - - - - 0 mhos 0 None None - -
10/21/2014 04:02 Dry 47.7F 56F - - - - - 0 mhos 0 None None - -
10/21/2014 04:01 Dry 47.7F 56F - - - - - 0 mhos 0 None None - -
10/21/2014 03:52 Dry 48.0F 56F - - - - - 0 mhos 0 None None - -
10/21/2014 03:51 Dry 48.2F 56F - - - - - 0 mhos 0 None None - -
10/21/2014 03:42 Dry 48.7F 56F - - - - - 0 mhos 0 None None - -
10/21/2014 03:32 Dry 49.1F 57F - - - - - 0 mhos 0 None None - -
10/21/2014 03:22 Dry 49.3F 57F - - - - - 0 mhos 0 None None - -
10/21/2014 03:21 Dry 49.3F 57F - - - - - 0 mhos 0 None None - -
10/21/2014 03:12 Dry 49.1F 57F - - - - - 0 mhos 0 None None - -
10/21/2014 03:02 Dry 49.1F 57F - - - - - 0 mhos 0 None None - -
10/21/2014 02:52 Dry 48.9F 57F - - - - - 0 mhos 0 None None - -
10/21/2014 02:51 Dry 48.9F 57F - - - - - 0 mhos 0 None None - -
10/21/2014 02:42 Dry 48.9F 57F - - - - - 0 mhos 0 None None - -
10/21/2014 02:32 Dry 48.9F 57F - - - - - 0 mhos 0 None None - -
Date/Time
(MDT)
Sf
Temp Chem Water Layer Surface Precipitation
Sf Sub Frz Factor Pct Depth IcePct Cond Salin Type Intens Accum Rate
10/21/2014 02:31 Dry 48.9F 57F - - - - - 0 mhos 0 None None - -
10/21/2014 02:22 Dry 48.7F 57F - - - - - 0 mhos 0 None None - -
10/21/2014 02:21 Dry 48.7F 57F - - - - - 0 mhos 0 None None - -
10/21/2014 02:12 Dry 48.7F 57F - - - - - 0 mhos 0 None None - -
10/21/2014 02:02 Dry 48.4F 57F - - - - - 0 mhos 0 None None - -
10/21/2014 01:51 Dry 48.0F 57F - - - - - 0 mhos 0 None None - -
10/21/2014 01:51 Dry 47.8F 57F - - - - - 0 mhos 0 None None - -
10/21/2014 01:41 Dry 47.7F 57F - - - - - 0 mhos 0 None None - -
10/21/2014 01:32 Dry 47.3F 57F - - - - - 0 mhos 0 None None - -
10/21/2014 01:31 Dry 47.1F 57F - - - - - 0 mhos 0 None None - -
10/21/2014 01:21 Dry 46.6F 57F - - - - - 0 mhos 0 None None - -
10/21/2014 01:20 Dry 46.6F 57F - - - - - 0 mhos 0 None None - -
10/21/2014 01:11 Dry 46.6F 57F - - - - - 0 mhos 0 None None - -
10/21/2014 01:02 Dry 46.9F 57F - - - - - 0 mhos 0 None None - -
10/21/2014 01:01 Dry 46.8F 57F - - - - - 0 mhos 0 None None - -
Date/Time
(MDT)
Sf
Temp Chem Water Layer Surface Precipitation
Sf Sub Frz Factor Pct Depth IcePct Cond Salin Type Intens Accum Rate
10/21/2014 00:51 Dry 47.1F 57F - - - - - 0 mhos 0 None None - -
10/21/2014 00:51 Dry 47.1F 57F - - - - - 0 mhos 0 None None - -
10/21/2014 00:41 Dry 47.3F 57F - - - - - 0 mhos 0 None None - -
10/21/2014 00:32 Dry 47.7F 57F - - - - - 0 mhos 0 None None - -
10/21/2014 00:31 Dry 47.7F 57F - - - - - 0 mhos 0 None None - -
10/21/2014 00:21 Dry 47.7F 57F - - - - - 0 mhos 0 None None - -
10/21/2014 00:11 Dry 48.0F 57F - - - - - 0 mhos 0 None None - -
10/21/2014 00:01 Dry 48.2F 57F - - - - - 0 mhos 0 None None - -
10/20/2014 23:51 Dry 48.6F 57F - - - - - 0 mhos 0 None None - -
10/20/2014 23:41 Dry 48.9F 57F - - - - - 0 mhos 0 None None - -
10/20/2014 23:37 Dry 48.9F 57F - - - - - 0 mhos 0 None None - -
10/20/2014 23:31 Dry 48.9F 57F - - - - - 0 mhos 0 None None - -
10/20/2014 23:20 Dry 49.3F 57F - - - - - 0 mhos 0 None None - -
10/20/2014 23:10 Dry 49.5F 57F - - - - - 0 mhos 0 None None - -
10/20/2014 23:06 Dry 49.6F 57F - - - - - 0 mhos 0 None None - -
Date/Time
(MDT)
Sf
Temp Chem Water Layer Surface Precipitation
Sf Sub Frz Factor Pct Depth IcePct Cond Salin Type Intens Accum Rate
10/20/2014 23:00 Dry 49.8F 57F - - - - - 0 mhos 0 None None - -
10/20/2014 22:51 Dry 50.2F 57F - - - - - 0 mhos 0 None None - -
10/20/2014 22:50 Dry 50.2F 57F - - - - - 0 mhos 0 None None - -
10/20/2014 22:40 Dry 50.5F 57F - - - - - 0 mhos 0 None None - -
10/20/2014 22:30 Dry 50.9F 57F - - - - - 0 mhos 0 None None - -
10/20/2014 22:21 Dry 51.4F 57F - - - - - 0 mhos 0 None None - -
10/20/2014 22:20 Dry 51.4F 57F - - - - - 0 mhos 0 None None - -
10/20/2014 22:10 Dry 51.8F 57F - - - - - 0 mhos 0 None None - -
10/20/2014 22:00 Dry 52.3F 57F - - - - - 0 mhos 0 None None - -
10/20/2014 21:51 Dry 52.7F 57F - - - - - 0 mhos 0 None None - -
10/20/2014 21:50 Dry 52.9F 57F - - - - - 0 mhos 0 None None - -
10/20/2014 21:40 Dry 53.4F 57F - - - - - 0 mhos 0 None None - -
10/20/2014 21:31 Dry 54.0F 57F - - - - - 0 mhos 0 None None - -
10/20/2014 21:30 Dry 54.1F 57F - - - - - 0 mhos 0 None None - -
10/20/2014 21:21 Dry 54.7F 57F - - - - - 0 mhos 0 None None - -
Date/Time
(MDT)
Sf
Temp Chem Water Layer Surface Precipitation
Sf Sub Frz Factor Pct Depth IcePct Cond Salin Type Intens Accum Rate
10/20/2014 21:20 Dry 54.7F 57F - - - - - 0 mhos 0 None None - -
10/20/2014 21:10 Dry 54.9F 57F - - - - - 0 mhos 0 None None - -
10/20/2014 21:05 Dry 55.0F 57F - - - - - 0 mhos 0 None None - -
10/20/2014 21:00 Dry 55.0F 57F - - - - - 0 mhos 0 None None - -
10/20/2014 20:51 Dry 55.4F 57F - - - - - 0 mhos 0 None None - -
10/20/2014 20:50 Dry 55.2F 57F - - - - - 0 mhos 0 None None - -
10/20/2014 20:40 Dry 55.9F 57F - - - - - 0 mhos 0 None None - -
10/20/2014 20:34 Dry 56.3F 57F - - - - - 0 mhos 0 None None - -
10/20/2014 20:29 Dry 56.3F 57F - - - - - 0 mhos 0 None None - -
10/20/2014 20:20 Dry 56.5F 56F - - - - - 0 mhos 0 None None - -
10/20/2014 20:19 Dry 56.5F 56F - - - - - 0 mhos 0 None None - -
10/20/2014 20:09 Dry 57.2F 56F - - - - - 0 mhos 0 None None - -
10/20/2014 19:59 Dry 57.7F 56F - - - - - 0 mhos 0 None None - -
10/20/2014 19:51 Dry 58.3F 56F - - - - - 0 mhos 0 None None - -
10/20/2014 19:49 Dry 58.5F 56F - - - - - 0 mhos 0 None None - -
Date/Time
(MDT)
Sf
Temp Chem Water Layer Surface Precipitation
Sf Sub Frz Factor Pct Depth IcePct Cond Salin Type Intens Accum Rate
10/20/2014 19:39 Dry 58.8F 56F - - - - - 0 mhos 0 None None - -
10/20/2014 19:29 Dry 59.7F 56F - - - - - 0 mhos 0 None None - -
10/20/2014 19:21 Dry 60.3F 56F - - - - - 0 mhos 0 None None - -
10/20/2014 19:19 Dry 60.4F 56F - - - - - 0 mhos 0 None None - -
10/20/2014 19:09 Dry 60.8F 56F - - - - - 0 mhos 0 None None - -
10/20/2014 19:02 Dry 61.0F 56F - - - - - 0 mhos 0 None None - -
10/20/2014 18:59 Dry 61.2F 56F - - - - - 0 mhos 0 None None - -
10/20/2014 18:50 Dry 61.7F 56F - - - - - 0 mhos 0 None None - -
10/20/2014 18:49 Dry 61.9F 56F - - - - - 0 mhos 0 None None - -
10/20/2014 18:39 Dry 62.4F 56F - - - - - 0 mhos 0 None None - -
10/20/2014 18:31 Dry 63.3F 55F - - - - - 0 mhos 0 None None - -
10/20/2014 18:29 Dry 63.3F 55F - - - - - 0 mhos 0 None None - -
10/20/2014 18:19 Dry 64.6F 55F - - - - - 0 mhos 0 None None - -
10/20/2014 18:18 Dry 64.6F 55F - - - - - 0 mhos 0 None None - -
10/20/2014 18:09 Dry 66.4F 55F - - - - - 0 mhos 0 None None - -
Date/Time
(MDT)
Sf
Temp Chem Water Layer Surface Precipitation
Sf Sub Frz Factor Pct Depth IcePct Cond Salin Type Intens Accum Rate
10/20/2014 18:01 Dry 68.2F 55F - - - - - 0 mhos 0 None None - -
10/20/2014 17:59 Dry 68.5F 55F - - - - - 0 mhos 0 None None - -
10/20/2014 17:51 Dry 69.6F 55F - - - - - 0 mhos 0 None None - -
10/20/2014 17:49 Dry 69.8F 55F - - - - - 0 mhos 0 None None - -
10/20/2014 17:39 Dry 71.1F 55F - - - - - 0 mhos 0 None None - -
10/20/2014 17:31 Dry 70.3F 55F - - - - - 0 mhos 0 None None - -
10/20/2014 17:29 Dry 71.2F 55F - - - - - 0 mhos 0 None None - -
10/20/2014 17:21 Dry 75.4F 55F - - - - - 0 mhos 0 None None - -
10/20/2014 17:19 Dry 75.0F 55F - - - - - 0 mhos 0 None None - -
10/20/2014 17:09 Dry 77.0F 55F - - - - - 0 mhos 0 None None - -
10/20/2014 17:01 Dry 77.5F 54F - - - - - 0 mhos 0 None None - -
10/20/2014 16:59 Dry 77.7F 54F - - - - - 0 mhos 0 None None - -
10/20/2014 16:50 Dry 78.4F 54F - - - - - 0 mhos 0 None None - -
10/20/2014 16:48 Dry 78.4F 54F - - - - - 0 mhos 0 None None - -
10/20/2014 16:38 Dry 78.4F 54F - - - - - 0 mhos 0 None None - -
Date/Time
(MDT)
Sf
Temp Chem Water Layer Surface Precipitation
Sf Sub Frz Factor Pct Depth IcePct Cond Salin Type Intens Accum Rate
10/20/2014 16:31 Dry 78.8F 54F - - - - - 0 mhos 0 None None - -
10/20/2014 16:28 Dry 81.0F 54F - - - - - 0 mhos 0 None None - -
10/20/2014 16:20 Dry 81.9F 54F - - - - - 0 mhos 0 None None - -
10/20/2014 16:18 Dry 81.9F 54F - - - - - 0 mhos 0 None None - -
10/20/2014 16:08 Dry 82.6F 54F - - - - - 0 mhos 0 None None - -
10/20/2014 16:02 Dry 83.3F 54F - - - - - 0 mhos 0 None None - -
10/20/2014 15:58 Dry 83.5F 54F - - - - - 0 mhos 0 None None - -
10/20/2014 15:50 Dry 83.7F 54F - - - - - 0 mhos 0 None None - -
10/20/2014 15:48 Dry 83.8F 54F - - - - - 0 mhos 0 None None - -
10/20/2014 15:38 Dry 84.2F 53F - - - - - 0 mhos 0 None None - -
10/20/2014 15:32 Dry 84.7F 53F - - - - - 0 mhos 0 None None - -
10/20/2014 15:28 Dry 84.4F 53F - - - - - 0 mhos 0 None None - -
10/20/2014 15:21 Dry 84.6F 53F - - - - - 0 mhos 0 None None - -
10/20/2014 15:18 Dry 84.7F 53F - - - - - 0 mhos 0 None None - -
10/20/2014 15:08 Dry 84.7F 53F - - - - - 0 mhos 0 None None - -
Date/Time
(MDT)
Sf
Temp Chem Water Layer Surface Precipitation
Sf Sub Frz Factor Pct Depth IcePct Cond Salin Type Intens Accum Rate
10/20/2014 15:02 Dry 84.7F 53F - - - - - 0 mhos 0 None None - -
10/20/2014 14:58 Dry 84.6F 53F - - - - - 0 mhos 0 None None - -
10/20/2014 14:50 Dry 84.6F 53F - - - - - 0 mhos 0 None None - -
10/20/2014 14:48 Dry 84.0F 53F - - - - - 0 mhos 0 None None - -
10/20/2014 14:38 Dry 84.4F 53F - - - - - 0 mhos 0 None None - -
10/20/2014 14:32 Dry 84.2F 53F - - - - - 0 mhos 0 None None - -
10/20/2014 14:28 Dry 83.7F 53F - - - - - 0 mhos 0 None None - -
10/20/2014 14:21 Dry 83.5F 53F - - - - - 0 mhos 0 None None - -
10/20/2014 14:18 Dry 83.5F 53F - - - - - 0 mhos 0 None None - -
10/20/2014 14:08 Dry 82.9F 53F - - - - - 0 mhos 0 None None - -
10/20/2014 14:01 Dry 82.6F 53F - - - - - 0 mhos 0 None None - -
10/20/2014 13:58 Dry 82.2F 53F - - - - - 0 mhos 0 None None - -
10/20/2014 13:50 Dry 82.0F 53F - - - - - 0 mhos 0 None None - -
10/20/2014 13:48 Dry 81.5F 53F - - - - - 0 mhos 0 None None - -
10/20/2014 13:38 Dry 80.4F 53F - - - - - 0 mhos 0 None None - -
Date/Time
(MDT)
Sf
Temp Chem Water Layer Surface Precipitation
Sf Sub Frz Factor Pct Depth IcePct Cond Salin Type Intens Accum Rate
10/20/2014 13:31 Dry 79.7F 53F - - - - - 0 mhos 0 None None - -
10/20/2014 13:28 Dry 79.3F 53F - - - - - 0 mhos 0 None None - -
10/20/2014 13:21 Dry 78.6F 53F - - - - - 0 mhos 0 None None - -
10/20/2014 13:18 Dry 78.4F 53F - - - - - 0 mhos 0 None None - -
10/20/2014 13:08 Dry 77.0F 53F - - - - - 0 mhos 0 None None - -
10/20/2014 13:01 Dry 75.4F 53F - - - - - 0 mhos 0 None None - -
10/20/2014 12:58 Dry 75.2F 53F - - - - - 0 mhos 0 None None - -
10/20/2014 12:51 Dry 75.6F 53F - - - - - 0 mhos 0 None None - -
10/20/2014 12:48 Dry 74.8F 53F - - - - - 0 mhos 0 None None - -
10/20/2014 12:38 Dry 73.6F 53F - - - - - 0 mhos 0 None None - -
10/20/2014 12:31 Dry 73.4F 53F - - - - - 0 mhos 0 None None - -
10/20/2014 12:27 Dry 72.3F 53F - - - - - 0 mhos 0 None None - -
10/20/2014 12:21 Dry 71.4F 53F - - - - - 0 mhos 0 None None - -
Change End Date:
Copyright © 1998-2005 Surface Systems, Inc.
All Rights Reserved
Send comments about the data to:
SCAN Web ® is a registered trademark of Surface Systems, Inc.
SCAN Web Version 5.6